Location: Unspecified
(40.7945°N, 111.1337°W)
Time: 16:40:22
(UTC-06:00)

Vanguard 1 - Pass Details

Date: 21 June 2019
Orbit: 653 x 3830 km, 34.3° (Epoch: 18 July)

Event Time Altitude Azimuth Distance (km) Brightness Sun altitude
Exits shadow 03:45:38 22° 217° (SW) 5,197 13.1 -18.1°
Maximum altitude 03:57:29 46° 160° (SSE) 3,071 12.3 -16.8°
Drops below altitude 10° 04:07:52 10° 92° (E) 3,941 13.6 -15.6°
Sets 04:10:32 0° 86° (E) 4,602 14.2 -15.3°
